Location: Cerda�ola
(41.4919°N, 2.1403°E)
Time: 01:38:58
(UTC+00:00)

Resurs 01 Rocket - Pass Details

Date: 29 March 2020
Orbit: 635 x 643 km, 98.0° (Epoch: 26 May)

Event Time Altitude Azimuth Distance (km) Brightness Sun altitude
Exits shadow 21:30:37 18° 275° (W) 1,539 4.0 -33.9°
Drops below altitude 10° 21:33:19 10° 312° (NW) 2,027 5.0 -34.3°
Sets 21:36:07 0° 331° (NNW) 2,942 6.0 -34.6°
